Theta_e
335 334 333 332 333 334 334 334 336 338 339 340 341 342 342 342 342 342 342 343 343 343 343 343 342 342 342 343 340 335 334 335 332 331 331 331 332 331 332 332 332 332 332 333 333 333 332 331 330 329 328 326 325 324 323 323 322 321 321 321 322 323 324 324 325 325 326 326 325 325 325 324 324 324 323 323 323 323 323 323 323 323 323 322 322
334 333 332 331 333 334 334 335 337 340 341 341 342 342 342 342 342 342 342 342 342 343 342 342 342 343 343 342 340 340 341 340 335 333 332 332 332 332 332 332 332 332 332 331 331 330 329 327 326 325 325 323 322 322 322 321 322 322 323 324 325 325 326 326 326 326 326 325 325 325 324 324 324 324 324 324 324 324 325 326 326 326 326 326 326
334 333 332 333 335 337 338 338 340 341 341 342 342 342 342 342 342 342 342 341 342 342 341 342 343 344 344 343 342 343 343 341 339 338 335 331 331 331 331 331 330 329 329 328 328 326 325 324 323 323 322 321 321 321 321 322 323 324 325 326 326 327 326 326 326 325 325 325 325 325 325 325 325 325 325 326 327 328 330 332 333 335 335 335 334
336 337 337 337 338 340 341 342 342 342 342 342 342 342 342 342 342 341 342 342 343 343 343 344 345 345 345 344 344 344 344 343 342 342 340 334 334 335 332 330 330 328 327 326 325 324 323 322 322 322 321 321 322 322 323 324 325 326 327 327 327 327 326 326 326 326 326 326 325 326 326 327 327 329 330 332 334 336 338 339 340 342 342 342 342
339 340 340 341 340 341 342 343 343 342 342 342 342 343 343 343 343 342 342 343 343 344 344 345 345 345 345 345 345 344 344 343 343 342 339 336 336 336 331 328 328 327 325 324 323 323 322 321 321 321 322 322 323 324 325 326 327 327 327 327 327 327 327 327 326 326 327 328 329 330 332 333 335 336 338 339 340 341 342 343 343 344 344 344 344
340 340 341 341 342 342 342 343 344 343 342 342 342 343 344 344 344 343 344 344 344 344 344 345 345 345 345 345 345 345 344 343 343 342 339 337 335 334 332 328 326 325 324 323 323 322 322 322 322 322 323 324 325 326 327 327 328 328 328 328 327 327 328 329 330 331 333 335 336 338 339 340 340 341 342 342 343 343 343 343 343 344 344 344 344
341 341 340 341 342 343 343 344 345 345 344 344 344 344 344 344 344 345 345 345 344 344 345 345 345 346 346 346 345 345 345 344 344 344 342 341 337 335 335 331 325 324 324 323 323 323 322 322 323 324 325 326 327 328 328 328 328 328 328 328 329 331 333 336 338 339 340 341 341 342 342 342 342 342 342 342 343 343 343 343 344 344 344 344 345
341 341 340 340 342 344 345 345 346 346 345 345 345 345 345 345 344 345 345 345 345 345 345 346 346 346 346 346 346 345 345 344 343 344 344 343 341 339 338 334 328 324 324 324 324 323 323 324 325 326 327 328 328 328 329 328 328 328 330 333 336 338 339 341 341 341 341 341 341 341 341 341 341 342 342 342 342 343 343 344 345 345 346 347 347
343 342 341 341 342 344 345 346 347 346 346 345 346 346 346 345 345 345 345 345 345 345 346 346 346 346 346 346 346 346 345 344 343 343 344 343 343 341 339 338 335 330 326 325 324 324 325 326 327 328 328 329 329 329 329 328 329 332 336 339 340 341 341 341 341 340 340 340 340 340 340 341 341 342 342 343 344 344 345 346 347 348 349 349 349
344 342 342 342 342 343 344 346 346 346 346 346 346 347 347 346 346 345 345 345 346 346 345 345 345 345 347 347 346 347 346 345 344 343 343 343 343 343 341 340 339 338 332 326 325 326 326 327 328 329 329 329 329 329 329 331 335 338 340 340 341 340 340 339 338 337 337 338 339 340 341 342 343 344 344 345 346 347 348 349 349 350 349 349 348
344 344 343 342 342 342 343 345 346 346 346 347 347 347 347 347 346 346 346 346 346 346 346 345 345 346 347 347 347 347 346 346 344 343 343 343 343 344 343 341 339 341 337 328 326 327 328 328 329 329 329 329 329 329 331 335 338 339 340 340 339 337 336 334 334 334 335 337 339 341 342 344 344 345 346 346 347 348 348 348 347 346 344 344 343
344 344 343 343 343 343 344 345 346 346 347 347 347 347 347 347 347 347 346 346 346 345 346 345 346 346 346 346 346 346 346 345 344 343 343 342 342 343 343 342 339 340 339 333 328 329 329 330 329 329 329 329 329 331 335 337 338 338 339 339 336 334 331 330 331 331 333 336 338 340 342 343 344 345 346 347 347 346 344 343 343 342 341 339 335
345 343 343 343 345 346 346 347 347 347 347 347 347 347 347 348 347 347 346 346 346 346 346 346 346 346 345 344 344 344 344 344 344 343 343 342 342 342 342 341 338 338 339 335 331 330 330 330 330 330 329 329 331 334 336 337 338 338 338 338 335 331 329 329 329 331 333 335 338 340 342 343 344 346 346 346 344 342 340 339 338 337 335 331 327
345 343 342 343 344 346 347 347 347 346 346 346 347 347 347 347 347 347 347 346 346 346 346 345 345 345 344 342 341 342 342 342 343 342 342 342 342 342 342 341 340 338 338 336 333 331 330 330 330 329 329 330 333 336 337 337 338 338 339 338 334 330 328 328 329 331 335 337 339 341 343 345 346 346 345 344 342 339 336 332 329 327 325 323 323
346 344 343 343 343 344 344 345 346 346 346 345 346 347 347 347 347 347 347 347 346 346 346 345 345 345 343 342 342 342 342 341 342 341 342 342 342 342 341 341 340 338 337 337 336 335 333 332 332 331 329 331 335 337 337 338 340 341 341 337 333 330 328 327 328 332 337 339 341 343 344 345 345 345 344 344 342 335 328 324 323 322 321 321 321
347 346 345 344 343 343 343 344 345 346 345 344 345 347 347 348 348 347 347 347 347 346 345 344 344 344 343 343 343 342 343 343 342 341 341 341 341 341 341 341 340 338 337 338 339 340 337 337 339 337 333 332 336 339 338 340 342 344 344 339 332 329 328 327 327 331 337 340 341 342 342 343 343 343 343 344 342 334 326 322 321 321 321 321 320
345 346 346 345 344 343 343 343 345 347 346 344 344 344 346 348 349 348 348 347 346 345 345 344 344 343 342 343 344 344 345 345 344 342 341 341 342 341 341 341 341 340 339 339 340 341 341 341 342 343 341 338 338 338 337 338 341 343 345 342 335 330 329 328 326 328 334 337 339 340 339 340 340 341 341 342 342 338 330 323 321 321 321 321 321
344 345 345 345 345 344 344 344 345 347 346 345 343 343 343 344 346 348 348 347 346 346 346 346 345 344 343 344 345 345 346 346 345 343 342 342 341 341 341 341 341 341 341 341 341 342 342 343 343 345 345 342 340 338 337 336 338 340 341 341 339 335 332 330 327 327 329 331 333 335 335 336 337 337 339 339 340 341 337 330 323 322 321 321 321
344 345 345 345 345 344 344 345 346 346 345 343 341 342 342 341 343 347 348 348 347 347 347 346 345 344 345 346 346 346 347 347 346 344 343 342 339 339 340 341 340 341 341 342 342 342 342 343 344 345 346 344 344 344 343 339 336 337 339 337 337 338 335 331 331 332 332 330 329 330 330 331 332 333 335 337 338 339 340 337 330 323 321 322 321
344 345 345 345 344 344 344 345 345 345 343 341 340 341 342 342 343 346 348 348 347 347 347 346 345 344 345 346 347 347 348 347 345 344 345 343 339 338 339 340 340 341 342 342 342 342 342 342 343 345 345 345 347 347 344 340 336 337 340 338 336 338 338 334 333 336 337 336 334 333 333 331 329 329 329 332 336 337 338 339 337 330 323 321 322
344 344 344 344 344 344 344 344 344 343 343 342 341 341 341 342 344 345 346 348 348 348 348 347 345 344 344 346 347 347 347 346 344 344 345 344 343 340 340 340 339 341 342 343 343 342 342 342 342 344 345 345 347 347 344 339 336 337 340 339 336 337 339 336 335 336 339 341 341 340 339 339 336 334 330 329 331 334 336 337 338 337 330 324 322
343 343 344 344 344 344 344 344 343 343 343 343 343 342 341 342 344 344 345 347 348 348 348 348 346 344 344 346 347 347 347 345 344 345 345 345 344 343 342 340 339 341 342 342 344 343 343 343 343 344 345 345 346 346 344 340 338 337 339 340 338 338 339 337 336 337 338 341 344 344 343 343 343 341 338 333 330 331 334 336 336 338 336 329 324
343 344 344 345 344 344 344 344 344 343 343 344 345 345 344 345 346 346 345 347 348 349 348 348 347 345 345 346 347 347 346 345 345 345 346 345 344 344 344 343 340 340 340 342 343 344 343 343 343 343 344 346 347 346 345 344 343 339 338 340 340 339 340 339 337 337 339 341 344 346 345 345 345 345 344 341 335 330 331 334 335 336 338 336 330
344 344 345 345 344 344 344 344 344 343 343 344 345 346 346 347 349 348 346 346 346 348 348 348 347 346 346 347 347 347 346 346 346 346 346 345 343 343 344 344 343 340 340 342 344 343 344 343 343 343 344 346 347 346 346 346 345 342 342 343 343 341 342 342 340 339 340 341 343 346 347 347 347 347 346 345 342 335 330 332 335 336 337 338 336
343 344 344 345 344 343 343 344 344 344 343 343 344 346 348 349 349 348 345 344 344 345 346 347 347 346 346 347 347 347 347 346 346 346 347 345 344 343 344 344 344 342 341 342 343 342 342 342 342 342 343 345 347 347 348 347 345 345 346 347 346 344 344 344 343 342 343 344 343 345 347 348 349 349 348 347 346 342 335 331 333 335 335 337 339
342 343 344 344 343 343 343 343 343 344 344 343 344 346 348 348 347 345 343 343 342 343 344 345 347 346 346 347 347 347 347 346 347 347 347 346 345 345 344 344 344 344 342 342 343 341 340 341 341 342 342 345 348 348 348 347 347 348 349 349 347 346 346 346 346 345 345 346 345 346 347 349 350 350 350 349 347 346 342 337 334 334 334 334 338
342 343 343 343 343 343 343 342 342 343 344 344 345 347 348 348 346 343 343 343 342 342 343 344 345 345 346 347 347 346 346 348 348 348 348 347 347 346 345 345 344 344 343 342 343 343 341 340 341 342 343 346 349 349 349 349 349 350 350 350 349 348 348 347 348 347 345 345 346 347 347 349 349 350 351 351 349 348 346 343 338 335 333 332 335
342 343 343 343 343 343 343 343 342 342 344 344 345 347 348 348 347 346 345 344 342 342 342 342 343 344 346 348 347 346 347 349 349 349 348 348 348 347 346 346 345 345 344 343 342 343 343 342 342 342 343 346 349 349 350 350 350 350 350 351 350 349 349 349 349 349 346 345 345 347 348 348 348 350 351 351 351 349 348 347 344 341 337 333 333
343 343 343 343 343 343 343 343 343 343 344 345 345 345 346 347 347 348 347 345 343 342 341 341 342 342 344 346 346 346 348 349 349 349 349 349 349 349 348 347 347 347 346 345 344 343 344 345 345 344 344 346 348 348 350 350 350 350 350 350 350 349 347 347 350 350 348 346 345 346 347 346 346 349 351 351 351 350 349 348 347 345 342 337 334
345 343 343 343 343 343 343 343 343 343 344 345 345 345 345 346 347 347 347 346 344 344 342 341 342 342 343 344 344 345 347 349 350 350 350 350 350 350 350 349 348 348 348 348 346 344 344 346 347 347 346 347 348 349 350 350 350 350 350 350 350 348 345 344 346 349 350 347 346 346 346 344 345 348 348 347 349 350 349 349 348 346 345 341 337
345 344 344 344 345 344 343 343 343 344 345 345 344 344 345 345 345 345 346 346 345 345 344 343 342 343 343 344 345 345 346 349 350 350 350 350 350 350 351 350 350 349 348 348 346 344 343 344 347 349 349 349 350 350 350 350 350 350 349 349 347 346 344 343 344 348 349 347 347 348 347 346 343 339 337 338 342 346 347 348 349 347 346 344 341
344 344 344 345 346 346 344 345 345 345 345 344 344 343 343 343 343 343 344 345 344 344 345 344 343 343 343 345 346 346 346 348 349 350 350 350 351 351 350 350 350 350 348 346 346 344 343 343 344 345 347 348 348 347 347 347 347 345 344 343 343 343 344 345 346 347 346 345 346 347 347 347 340 331 327 329 332 337 340 344 347 347 345 344 343
343 342 343 344 346 347 346 346 346 346 345 344 343 343 342 342 342 342 343 343 343 343 345 345 345 345 344 345 346 348 348 347 347 348 349 349 350 350 350 350 350 350 349 350 350 349 346 345 344 343 343 343 343 342 341 341 341 339 338 338 341 344 345 346 345 344 343 342 344 345 345 344 337 330 328 328 327 329 333 338 342 343 343 342 343
342 342 342 344 345 346 347 347 347 347 346 345 344 342 341 342 342 342 342 342 342 343 343 344 345 345 345 345 345 347 348 348 348 347 347 348 349 349 350 351 351 351 352 353 353 353 350 347 347 346 345 344 342 341 341 340 340 339 338 339 341 342 342 343 343 342 342 341 341 342 340 338 335 333 333 332 331 329 329 333 337 339 340 339 342
342 342 343 344 346 347 348 348 348 348 347 346 345 343 342 341 341 342 342 342 343 343 343 343 344 343 343 343 343 345 347 348 349 348 347 348 348 348 349 350 351 352 353 353 352 352 352 350 348 347 346 345 343 342 341 340 340 340 339 338 338 338 338 340 342 344 344 342 339 338 337 336 336 336 337 337 336 333 330 331 334 338 341 340 341
340 342 343 345 347 349 349 349 349 349 349 347 346 344 342 341 341 341 342 342 342 343 342 343 343 343 343 342 341 343 345 346 346 346 346 346 346 345 345 347 349 351 352 351 350 350 350 350 349 348 347 344 342 340 339 338 337 337 336 335 334 334 334 337 343 346 346 343 339 337 336 337 338 338 340 340 340 338 334 332 333 337 341 342 342
337 340 343 344 345 347 348 349 350 351 351 350 348 346 343 341 340 340 341 341 341 341 340 340 341 342 343 342 341 341 342 343 343 344 344 344 343 343 343 343 344 348 350 351 350 350 350 349 349 347 345 343 340 337 336 336 334 331 330 329 330 330 331 335 341 344 344 342 338 336 336 338 339 339 340 341 342 340 337 334 333 335 340 342 343
334 337 341 343 343 344 346 348 349 350 350 350 349 348 345 342 340 339 339 339 339 339 338 337 338 339 340 341 340 340 340 340 340 341 341 341 341 341 340 340 342 345 347 348 350 351 350 350 349 345 342 340 338 335 334 335 331 328 327 326 326 327 327 329 332 334 336 335 335 335 337 339 339 339 339 340 341 339 337 335 333 334 339 342 343
333 336 341 343 342 343 345 347 348 349 349 348 348 347 347 345 342 340 338 338 338 338 338 337 337 337 337 337 337 338 338 339 338 338 338 337 337 337 337 338 340 342 343 344 347 348 348 347 346 342 339 337 335 333 331 331 329 326 326 326 325 325 325 325 325 326 327 329 330 333 336 337 336 336 335 335 336 336 334 333 333 334 338 342 343
333 335 339 343 343 342 343 345 347 348 348 348 348 347 347 347 345 342 340 339 338 338 337 337 337 336 335 335 335 335 336 336 336 336 336 336 336 336 336 336 337 338 340 340 341 342 343 342 340 338 337 336 334 331 329 328 326 326 326 326 326 326 326 325 324 324 324 325 326 327 329 329 329 328 329 329 330 331 331 332 332 333 337 342 343
335 334 337 342 344 343 341 342 343 345 347 347 346 346 346 346 345 344 342 340 338 337 336 336 336 335 335 335 334 335 335 336 337 337 336 336 335 334 334 336 337 338 338 339 339 340 341 341 340 340 340 338 335 334 333 329 329 329 329 330 330 329 328 327 325 324 325 324 324 324 324 325 326 326 326 326 327 328 330 332 332 332 336 341 344
336 336 339 344 347 346 344 342 342 343 345 344 344 344 344 345 345 344 343 341 339 337 335 334 333 333 334 334 334 334 334 335 337 338 338 338 338 336 334 336 338 340 341 341 342 343 343 343 343 343 342 340 338 338 337 334 332 333 334 334 334 331 329 329 327 324 323 324 326 326 324 325 326 326 326 327 328 330 333 334 333 331 333 339 344
340 339 341 345 348 349 347 345 344 344 345 344 344 344 344 344 344 344 343 342 340 339 338 336 334 333 333 332 332 332 333 332 332 333 335 336 338 338 336 336 339 342 344 345 345 345 345 345 345 345 344 342 339 338 338 336 336 337 338 338 337 334 332 332 331 327 324 325 328 328 325 326 328 328 328 328 331 334 336 336 334 332 330 334 341
348 346 345 346 348 349 349 348 346 345 345 345 345 344 344 344 344 344 344 342 342 341 341 341 340 339 337 335 332 331 330 329 329 329 330 331 333 335 335 336 338 340 342 343 344 344 344 344 343 343 343 342 340 339 339 339 339 340 340 340 339 338 336 335 333 331 328 329 331 330 327 327 329 330 329 329 332 335 338 338 337 334 329 329 335
352 351 350 349 349 349 348 347 347 346 345 345 345 345 344 343 343 344 344 343 343 342 342 342 342 342 342 341 338 334 330 329 329 329 329 329 329 331 332 334 334 335 336 338 340 341 342 342 341 340 339 339 339 338 337 339 341 342 341 341 340 339 338 335 334 333 332 331 333 334 330 327 330 332 330 328 331 335 339 339 338 335 331 327 329
352 352 352 351 350 350 348 346 346 346 345 345 345 345 345 344 343 344 344 344 344 344 343 343 343 343 344 344 343 341 338 336 335 335 334 333 332 331 331 331 331 332 333 335 337 339 341 342 342 340 338 339 339 338 338 340 341 341 340 339 338 338 337 335 335 335 335 334 336 338 334 328 330 333 329 326 330 335 339 340 339 336 333 328 325
351 351 351 351 351 351 350 348 346 345 345 345 344 345 346 345 344 344 344 345 345 345 344 344 344 345 345 345 345 345 344 343 342 342 341 340 339 337 335 334 333 331 331 331 332 335 338 340 341 341 340 340 341 340 339 339 338 337 337 338 338 338 337 337 337 337 336 336 337 341 340 333 332 333 330 327 332 337 338 339 340 338 335 330 326
351 351 351 351 351 350 349 349 348 347 346 345 344 344 345 345 345 345 344 344 344 344 345 344 344 345 346 346 346 346 346 345 345 344 344 344 343 342 341 339 338 337 335 334 332 332 333 334 335 336 337 337 338 337 336 336 336 336 338 339 339 339 340 340 341 340 339 339 339 341 342 337 333 333 332 330 333 336 336 337 340 340 337 332 328
351 351 352 351 351 351 350 349 349 348 347 345 344 345 346 346 346 346 345 345 344 343 344 345 345 345 345 346 345 345 344 344 344 344 344 345 345 344 343 342 341 341 341 341 340 339 339 339 339 339 339 339 339 340 340 340 341 340 341 342 341 342 342 343 343 342 342 342 340 342 344 339 333 336 336 333 333 334 334 335 338 340 339 336 333
352 351 352 352 351 350 350 350 349 349 347 345 345 346 347 348 348 347 346 345 344 344 343 343 344 344 344 344 344 344 344 343 343 343 344 345 345 345 345 344 343 342 342 342 343 343 343 344 344 344 344 345 345 346 346 346 346 345 344 344 344 344 344 344 345 345 345 344 340 343 345 341 336 339 340 337 335 332 332 334 336 339 341 340 338
351 351 351 351 351 351 350 349 349 348 347 346 345 345 346 347 348 348 348 348 346 345 344 344 344 344 344 345 345 345 346 345 345 346 346 346 347 346 345 345 345 344 343 343 343 343 343 344 344 344 346 347 348 349 349 349 350 350 348 348 347 347 346 346 346 346 348 346 341 343 347 345 342 343 344 344 342 336 332 333 335 338 341 342 342
Wind_Speed
13 14 15 16 16 17 17 19 19 19 18 17 16 14 12 11 10 9 8 7 6 4 3 3 4 6 7 8 8 9 10 10 9 8 6 6 5 4 4 4 3 3 4 4 4 4 4 4 5 5 5 6 7 7 7 8 8 8 8 8 9 10 10 10 9 9 9 9 9 9 9 9 9 9 9 9 9 9 9 10 10 10 10 10 10
13 14 15 15 16 17 17 18 18 17 16 15 13 11 10 8 7 7 6 6 5 4 2 3 5 7 8 8 8 8 10 10 10 9 8 7 6 6 5 5 4 4 4 4 5 5 5 4 4 5 6 7 8 8 9 9 9 9 9 10 11 11 10 10 9 9 9 9 9 9 9 10 10 10 10 10 10 10 10 10 10 11 11 11 11
14 14 14 14 15 16 17 17 16 15 14 13 12 11 10 8 7 7 6 6 5 4 4 6 7 8 9 9 9 9 10 11 11 11 10 8 8 8 7 6 5 5 5 5 5 5 5 5 6 7 8 9 9 9 10 10 10 10 11 11 11 10 10 9 9 9 9 9 10 10 10 10 10 11 11 11 11 11 11 11 11 11 11 12 12
14 13 13 13 14 15 16 15 14 14 12 12 12 12 10 8 8 7 6 5 4 5 6 7 8 8 9 9 8 9 10 11 11 11 10 8 8 8 8 6 5 5 6 6 6 6 7 7 7 8 9 10 10 10 10 10 11 11 11 10 10 10 10 10 10 10 10 10 10 11 11 11 11 11 11 11 11 11 11 11 12 12 12 12 13
12 11 12 12 13 14 14 14 13 12 12 12 12 12 10 8 8 7 6 5 4 3 3 5 6 7 7 7 7 8 9 10 11 11 11 9 7 7 8 7 7 6 7 7 8 8 8 8 9 9 10 10 10 10 11 11 11 10 10 10 10 10 10 10 10 10 10 10 11 11 11 11 11 11 11 11 11 12 12 12 12 13 13 14 15
11 11 11 11 12 13 13 12 12 11 11 11 11 10 9 7 7 7 5 3 2 1 0 2 5 6 6 7 7 7 8 8 9 10 10 10 8 8 9 9 8 8 8 9 9 9 9 10 10 10 10 10 10 10 10 10 10 10 10 10 10 10 10 10 10 10 10 10 11 11 11 11 11 11 11 12 12 13 13 14 14 15 15 16 17
10 11 11 12 12 12 12 11 10 10 9 10 9 8 7 7 7 6 4 4 4 3 1 1 3 4 5 6 6 7 7 7 7 7 9 9 9 9 10 10 9 9 9 10 9 9 10 10 11 10 10 10 10 10 10 10 10 10 10 10 10 10 10 10 9 10 10 10 10 11 11 12 12 12 13 13 14 14 15 15 16 17 18 18 19
11 11 11 11 11 11 11 10 9 9 8 8 8 8 7 7 6 5 5 5 5 4 2 2 1 2 3 4 5 6 7 6 5 5 6 8 8 8 10 11 10 10 10 10 9 9 10 10 10 10 9 9 9 9 9 9 10 10 10 10 9 9 9 9 10 10 10 11 11 12 12 13 13 14 14 14 15 15 16 17 17 18 19 20 20
11 11 12 11 11 11 11 10 10 9 8 8 8 7 6 6 6 5 5 4 4 3 3 3 1 1 2 4 5 5 6 5 4 5 5 6 7 7 8 10 10 10 10 9 9 9 9 9 9 8 8 8 8 9 9 9 9 9 10 9 9 9 10 10 11 11 12 12 12 13 13 13 14 14 14 15 15 16 16 17 18 18 19 20 21
11 12 12 12 11 12 11 11 10 9 8 8 7 7 6 6 5 5 5 5 4 3 3 3 1 1 2 3 5 5 5 5 4 4 5 5 6 6 7 8 8 9 9 9 9 9 9 8 8 7 7 7 8 9 9 9 9 9 9 9 10 10 11 12 12 13 13 13 13 13 13 13 14 14 14 15 15 16 16 17 18 18 19 19 20
11 12 13 12 12 12 12 11 10 9 8 7 7 6 5 6 6 6 6 5 4 4 3 2 1 1 0 1 4 6 6 6 5 4 4 5 4 4 5 6 6 7 8 9 9 8 8 8 7 7 7 7 8 9 8 8 8 9 9 10 11 12 13 13 14 14 13 13 13 13 13 14 14 15 16 16 16 17 17 17 18 18 18 18 18
12 12 13 13 12 11 11 10 10 9 8 7 6 6 6 7 7 6 7 7 5 4 3 2 1 1 2 3 4 6 6 6 4 4 4 4 4 4 4 4 5 5 6 8 8 8 7 7 7 6 7 7 8 9 8 8 9 10 11 12 13 14 14 15 15 15 14 14 14 14 15 15 16 16 16 17 16 16 16 17 17 17 17 17 17
11 12 13 13 12 11 11 10 9 9 8 7 7 7 8 7 7 6 6 7 5 4 3 3 3 4 4 5 5 5 6 6 5 4 4 4 4 3 3 3 4 4 4 7 8 7 7 6 6 7 7 7 8 8 8 9 10 11 13 14 14 15 16 16 16 16 15 14 14 14 15 16 16 17 17 17 17 17 18 19 18 17 16 16 16
11 11 12 12 12 12 11 9 9 9 8 7 7 8 8 7 6 6 6 5 4 3 2 3 3 4 5 6 3 2 3 5 6 5 4 3 3 2 2 2 4 5 5 6 8 8 7 6 7 7 7 6 7 8 8 10 12 13 14 15 15 16 17 17 17 16 15 15 14 14 16 16 17 16 17 17 18 20 21 21 19 18 17 16 17
10 10 11 11 11 11 11 10 8 8 8 8 8 8 7 6 6 5 5 4 3 2 2 2 2 3 5 4 4 4 4 4 6 6 6 4 2 2 2 3 4 5 6 8 8 8 8 8 8 8 7 6 7 8 9 11 13 14 15 15 15 16 18 18 18 17 16 15 14 15 16 16 16 16 16 18 20 22 22 21 20 18 17 17 18
9 10 10 9 9 10 11 10 8 8 7 7 9 9 8 7 7 7 6 5 4 3 2 3 3 3 3 4 6 7 7 8 8 5 5 5 3 2 2 3 4 5 6 6 7 7 7 8 10 10 8 5 5 7 9 11 13 15 16 16 16 16 18 18 18 17 17 16 15 15 16 16 16 16 17 19 21 22 22 21 20 18 18 18 19
8 9 10 9 9 9 9 9 8 7 6 6 8 9 9 9 9 9 8 6 4 4 3 2 3 4 2 4 6 7 9 11 10 6 5 5 5 4 1 1 3 3 3 3 3 4 5 7 9 10 10 7 5 7 9 12 13 15 16 16 16 16 18 18 18 18 17 16 16 15 15 16 16 16 18 19 21 23 22 21 20 19 18 18 19
9 9 9 9 9 9 8 8 7 6 6 6 7 8 9 10 10 10 9 7 5 4 3 2 3 4 2 4 5 6 8 10 11 9 7 7 7 6 3 1 1 3 3 3 3 3 4 5 7 9 10 10 8 9 11 13 13 15 16 16 15 15 17 17 16 17 17 16 15 15 15 15 16 16 17 19 20 22 23 22 21 19 19 19 19
9 8 8 8 8 8 8 8 8 8 7 7 8 8 8 9 10 10 10 8 6 5 4 3 4 4 3 3 4 4 7 9 10 10 10 9 8 6 4 2 1 2 3 3 3 2 2 4 6 7 8 10 11 12 14 13 13 14 16 16 15 14 16 16 15 16 17 17 16 16 16 16 16 16 17 19 20 21 22 23 22 21 19 19 19
10 8 8 8 8 8 9 9 9 9 9 8 8 8 8 9 9 10 10 9 8 6 5 4 4 5 4 3 3 3 5 8 8 9 10 10 7 4 3 3 2 2 2 3 3 2 2 3 4 5 6 9 11 13 15 14 12 13 14 16 15 14 15 15 14 14 16 17 17 18 18 18 18 18 18 19 20 21 21 22 22 22 20 19 20
10 9 9 8 9 9 9 10 10 10 9 9 9 9 9 9 8 9 10 10 8 7 6 6 6 6 7 5 4 3 3 5 6 6 8 9 7 6 4 4 2 2 2 1 2 2 2 2 2 3 5 8 11 13 14 14 13 12 13 15 14 14 15 15 14 13 14 16 17 19 20 21 21 21 21 20 20 20 21 21 21 22 21 20 20
11 10 10 9 10 10 10 9 10 10 10 9 9 9 9 8 8 8 10 10 9 9 8 8 8 8 8 7 5 4 3 2 3 4 6 8 8 8 7 7 5 2 3 2 1 1 2 2 2 3 6 9 10 12 13 13 13 13 13 14 14 14 15 16 15 13 13 15 16 18 20 21 23 24 23 22 21 20 20 21 21 21 22 21 21
11 11 11 11 10 10 10 10 10 10 9 9 9 9 8 8 7 7 9 10 10 11 10 9 8 8 9 8 6 5 4 2 2 3 5 6 7 7 7 8 7 6 5 5 3 2 1 2 4 4 6 9 9 10 12 13 13 13 13 13 13 13 15 16 16 14 13 14 15 17 19 21 22 24 25 25 23 21 20 20 21 21 21 22 21
12 12 12 12 11 10 11 10 10 10 9 9 9 9 8 7 7 8 9 10 11 12 12 10 9 8 9 9 9 7 5 4 3 3 4 5 6 6 7 7 7 7 7 6 4 3 3 4 6 5 6 8 8 9 11 12 12 12 13 12 12 14 15 16 17 15 14 14 15 16 19 20 21 23 25 26 25 22 20 20 20 20 21 21 21
13 13 12 12 11 11 10 10 10 10 9 9 9 9 8 8 8 9 8 9 10 12 12 11 10 9 10 10 10 9 7 6 5 4 4 4 4 6 7 7 6 5 6 6 6 6 6 6 6 6 7 8 8 8 9 11 11 12 13 12 13 15 16 16 17 16 15 15 15 16 17 19 20 21 23 25 25 24 22 20 19 20 20 21 21
12 12 12 12 12 10 9 10 10 9 10 10 10 9 9 8 8 9 8 9 10 11 12 12 11 11 11 11 11 11 9 8 6 5 4 4 5 6 7 8 7 6 5 6 7 8 8 7 7 8 9 9 8 7 9 10 10 11 12 13 14 15 17 17 17 17 17 16 16 16 17 18 19 20 21 23 24 24 23 21 20 20 20 20 20
11 11 11 12 11 10 9 10 10 10 10 10 10 10 10 9 9 9 9 9 10 10 10 12 12 12 12 11 11 11 10 8 7 6 5 5 6 7 7 9 9 8 7 7 8 9 10 9 9 9 10 10 9 8 8 9 9 10 12 14 14 15 17 17 17 18 18 17 17 17 17 17 18 19 20 21 23 23 22 22 21 21 21 20 20
12 12 12 12 12 11 10 10 10 10 10 10 10 10 9 9 9 9 8 9 10 10 10 11 12 13 12 12 11 11 10 9 7 7 6 6 7 8 8 9 10 10 10 9 9 10 11 11 11 11 11 11 11 10 8 9 10 10 11 13 14 15 16 17 17 19 19 18 18 18 18 18 18 18 19 20 21 22 21 22 22 22 21 22 21
13 13 13 13 12 12 12 11 11 11 10 10 10 10 9 8 8 8 8 9 9 10 10 11 12 13 13 13 12 12 11 10 8 8 8 8 9 9 9 9 10 11 12 12 12 12 12 11 11 11 11 11 12 12 11 11 12 12 12 13 14 15 16 17 18 19 20 19 18 18 19 19 18 18 19 19 20 20 20 21 22 22 22 22 22
14 14 14 14 13 13 13 12 12 11 10 11 11 10 10 9 8 8 8 9 9 9 10 11 12 13 14 14 13 13 13 12 10 9 9 9 10 10 10 11 12 12 13 14 15 14 13 12 10 9 10 10 11 12 12 13 14 14 14 15 17 18 19 18 18 19 20 20 19 18 19 19 18 18 18 18 18 18 18 19 21 22 22 21 21
15 14 14 15 15 14 14 13 12 11 10 11 11 11 11 10 9 8 9 9 10 10 10 10 11 12 13 14 14 14 14 14 12 11 11 10 11 11 12 12 12 13 14 15 16 15 14 14 12 10 10 10 11 12 13 14 15 16 17 19 20 21 21 20 19 20 22 22 20 19 18 18 17 17 17 17 17 17 17 18 20 21 21 20 20
16 15 15 15 15 15 14 14 14 12 11 11 12 12 12 11 10 9 9 9 10 10 10 10 11 12 13 13 13 14 14 15 14 13 13 12 12 12 13 13 13 13 13 13 14 14 12 13 14 14 14 15 14 15 16 17 18 19 20 21 21 21 20 20 20 21 22 21 19 18 18 17 16 16 17 17 17 16 16 17 18 20 21 20 20
17 17 16 16 16 15 14 15 14 13 12 12 12 12 12 12 11 10 10 10 10 10 10 10 11 11 13 13 13 13 13 14 14 14 15 14 14 14 13 13 12 10 9 10 12 14 12 11 12 13 15 16 17 17 18 20 20 20 20 19 19 19 20 21 22 22 20 17 16 16 16 14 14 15 16 17 17 16 15 16 17 18 20 20 19
18 18 18 17 16 15 15 15 14 13 13 13 13 14 13 13 12 11 11 11 10 10 10 11 10 11 12 12 12 12 12 13 13 13 14 14 15 15 14 13 11 9 7 9 12 14 14 12 12 12 12 13 15 15 16 18 19 19 18 18 18 19 20 21 21 19 16 13 13 13 13 13 13 14 16 17 18 18 16 16 16 17 18 19 18
19 19 19 18 17 16 16 15 14 14 14 14 14 15 15 14 13 12 12 12 12 11 11 11 11 12 12 12 11 10 11 13 13 13 13 13 14 15 14 13 12 10 9 10 12 14 15 15 14 13 13 13 14 13 14 15 16 17 17 17 18 18 19 19 17 14 12 11 11 12 12 13 14 15 16 17 18 19 18 17 16 17 17 17 16
19 19 19 19 19 17 17 17 16 16 15 15 15 16 16 15 14 13 13 13 13 12 11 11 11 12 12 12 10 9 10 12 13 13 13 13 13 14 14 14 13 12 11 11 12 13 15 17 17 16 15 15 14 13 13 14 14 14 15 15 16 17 17 15 13 12 12 12 13 13 14 15 16 17 17 18 19 20 20 19 17 16 16 16 15
20 19 19 20 19 19 18 19 19 18 17 16 16 16 16 16 16 15 14 14 14 14 13 12 12 12 13 13 11 10 11 12 12 12 12 12 12 13 14 14 14 14 14 14 13 14 15 18 19 19 17 17 16 14 14 14 13 13 13 13 14 14 14 13 12 12 13 15 15 16 17 17 18 19 19 19 19 20 21 20 18 16 15 13 13
21 21 20 20 20 20 19 19 19 19 18 17 17 17 17 17 17 16 16 16 16 15 15 14 13 13 14 14 13 12 12 12 12 11 12 12 13 13 14 15 15 15 16 16 16 16 18 19 20 20 19 18 17 14 12 13 14 15 15 15 14 14 15 14 13 13 14 16 17 18 18 19 19 20 20 20 20 21 22 21 19 16 13 12 11
23 22 21 21 21 21 20 19 19 19 18 18 17 18 18 18 18 18 18 17 17 16 16 16 16 16 16 15 15 14 13 13 12 12 12 13 13 14 14 14 15 15 16 16 16 18 19 20 20 20 19 18 17 15 13 14 15 17 18 19 18 17 17 18 17 17 17 17 18 19 19 20 21 21 20 21 21 22 23 21 18 15 13 11 11
24 23 22 21 21 21 20 20 20 20 19 19 18 18 18 19 19 19 19 18 18 17 17 17 16 17 17 16 16 15 14 13 13 12 12 13 13 14 14 13 14 14 14 14 15 16 17 18 18 17 17 17 17 16 16 16 17 18 19 21 22 21 21 21 20 21 21 21 21 21 21 21 22 22 22 22 23 23 23 21 17 14 12 11 11
25 24 22 21 21 21 20 20 20 20 21 21 20 19 18 19 19 19 19 19 18 17 17 17 17 17 17 17 17 16 16 15 15 15 14 14 15 15 14 14 13 13 13 13 13 14 15 16 17 17 18 18 18 17 18 18 18 19 20 22 23 24 25 26 24 23 24 23 23 22 22 22 23 24 24 24 24 23 22 19 16 14 12 11 11
26 25 23 22 22 22 21 20 19 19 21 21 21 20 18 18 19 19 19 18 18 17 17 17 18 18 18 18 18 18 18 18 18 17 17 17 17 17 16 15 13 13 13 14 14 15 17 18 19 19 20 21 19 19 19 19 19 20 21 22 25 26 27 28 27 23 23 24 25 25 23 23 24 25 25 24 23 22 20 18 16 14 13 12 12
25 25 24 23 23 24 23 22 20 19 20 20 21 21 20 20 20 20 19 18 16 16 16 16 17 18 19 20 20 20 20 20 19 18 18 18 17 17 17 17 15 15 15 16 17 18 19 21 22 22 23 24 22 20 21 21 21 21 22 24 27 28 29 29 29 25 22 24 26 27 26 25 25 26 25 23 21 20 19 17 16 15 14 14 13
26 26 25 24 24 25 26 25 24 22 21 20 21 22 23 22 22 22 21 20 18 17 16 16 15 16 17 18 20 21 21 21 21 20 20 19 19 19 18 18 18 18 18 19 20 20 20 22 23 23 24 25 24 23 23 23 23 24 25 26 27 29 30 30 29 27 24 24 26 29 29 27 25 25 25 22 20 19 18 17 16 16 16 15 14
28 28 27 27 26 26 27 28 27 26 25 24 23 23 24 24 23 24 24 23 22 21 20 19 17 16 16 16 17 18 19 20 20 20 20 20 21 21 21 21 21 21 21 21 22 22 23 24 25 25 25 26 26 26 25 25 26 27 27 28 28 29 31 31 30 28 26 25 26 29 31 28 25 26 26 22 21 20 19 17 16 17 17 16 16
30 30 29 29 28 28 28 28 29 29 29 28 27 26 26 26 26 26 27 27 27 26 24 22 21 19 18 18 18 17 16 16 17 17 18 19 19 21 22 23 23 23 23 23 23 24 24 25 27 28 27 28 29 28 27 27 28 28 28 29 30 30 32 32 31 30 27 25 26 29 32 29 26 27 27 23 22 21 18 16 16 16 17 16 16
29 29 29 29 29 29 29 29 30 31 30 30 30 29 29 28 28 29 29 30 31 30 29 26 23 22 20 20 20 19 18 17 17 17 18 19 20 21 22 23 24 24 25 25 25 25 26 27 29 29 30 30 30 31 29 28 29 29 29 30 31 31 33 33 33 31 28 26 26 29 32 30 27 29 27 23 22 20 17 16 16 16 16 16 16
24 25 26 27 27 28 29 30 31 31 31 31 31 31 31 30 30 31 31 30 30 31 31 29 27 25 23 22 22 22 21 21 20 20 21 22 23 24 25 25 24 25 25 25 24 25 26 27 28 29 30 30 30 31 30 30 30 30 30 32 32 32 33 34 35 33 30 28 27 29 33 31 28 28 27 23 22 21 19 18 17 16 16 16 15
19 22 23 25 25 26 28 30 31 32 33 32 32 31 31 31 31 32 32 32 31 30 29 29 28 27 25 24 24 23 23 23 23 22 22 24 27 28 29 29 28 28 28 27 25 25 25 26 27 27 28 29 29 30 31 31 31 31 32 34 34 32 32 34 35 35 33 31 30 31 34 32 27 27 27 24 24 23 21 18 17 16 16 15 15
13 17 20 21 23 24 25 28 30 31 32 33 32 30 28 28 29 30 31 32 32 31 30 30 30 29 28 27 26 26 27 28 28 26 26 26 29 30 31 32 33 33 32 30 29 28 27 27 28 28 29 30 31 31 32 32 31 31 32 34 33 31 32 33 34 34 35 33 29 30 33 30 26 27 29 28 27 25 21 18 17 16 15 15 15
10 12 15 16 18 19 21 24 27 29 29 30 32 32 30 28 27 26 27 29 30 31 31 31 31 31 30 30 29 30 31 32 32 32 31 30 31 32 33 34 36 37 35 32 32 32 31 31 31 31 32 32 33 33 33 31 30 30 32 33 32 31 31 32 31 32 34 32 28 28 32 30 28 29 29 30 31 28 23 20 19 18 17 16 16
Wind_Direction
143 142 140 138 136 135 134 132 130 129 130 129 128 127 126 128 128 127 124 122 121 119 108 81 62 53 50 48 49 57 58 54 52 52 51 49 46 45 44 46 50 51 51 47 42 41 35 31 31 37 46 54 57 58 60 58 56 56 56 55 52 48 43 39 34 28 21 13 8 3 0 354 350 348 345 345 343 342 339 336 333 329 325 321 318
144 143 143 144 142 140 138 136 135 133 133 133 132 133 136 139 143 147 149 143 134 134 121 79 67 60 58 63 68 65 57 54 52 47 43 44 43 42 39 37 39 43 47 48 47 46 43 45 52 61 66 67 67 65 64 61 59 59 56 53 48 42 37 31 24 16 8 2 358 356 353 350 347 345 345 345 344 344 342 340 338 334 330 325 322
147 147 147 149 148 145 142 141 140 140 141 142 142 143 144 145 150 156 160 153 135 119 103 85 76 71 72 75 74 64 55 54 53 46 40 42 43 42 41 39 40 46 51 54 56 58 59 65 71 75 76 74 72 68 66 63 58 55 51 47 41 34 26 18 11 5 360 356 355 354 352 349 347 346 346 345 345 345 344 343 340 337 332 327 323
150 149 150 152 152 149 146 145 146 148 149 149 148 146 147 149 152 153 153 144 124 103 90 83 76 71 73 70 63 55 52 51 47 41 37 39 40 37 38 41 46 53 60 66 69 72 73 76 78 77 77 75 73 69 65 60 55 51 45 39 32 25 17 10 5 1 358 357 355 354 352 350 349 348 348 346 346 345 343 341 338 334 330 325 321
159 159 158 158 160 158 155 152 151 153 154 154 152 152 155 159 158 157 152 134 117 111 86 71 64 59 61 56 49 45 45 46 44 40 39 40 40 38 41 46 56 64 71 76 78 79 80 80 80 78 77 74 71 67 62 56 51 45 39 33 26 19 13 8 4 3 0 359 358 356 354 352 350 348 346 344 342 339 337 334 330 327 323 320 316
170 173 171 170 170 168 164 160 157 158 160 161 161 162 165 165 163 161 161 157 150 165 137 37 42 45 52 50 44 40 41 41 41 42 42 45 50 54 53 55 63 72 79 81 81 82 82 82 81 79 77 73 68 62 57 51 45 39 34 29 24 19 15 11 9 7 4 2 359 356 352 348 345 342 339 336 333 331 328 325 322 319 316 314 311
176 178 176 175 175 173 170 169 165 163 165 166 168 171 172 172 170 167 174 202 226 232 248 326 14 35 45 47 41 33 31 28 27 34 41 46 53 58 56 57 65 73 78 80 83 86 85 84 82 79 75 69 63 56 51 45 40 37 33 29 26 22 18 15 12 8 4 359 355 349 344 340 336 333 330 327 325 323 320 317 316 313 312 310 308
180 179 176 174 173 174 176 177 174 170 168 165 167 172 176 180 179 173 175 193 212 227 251 278 334 45 33 20 15 13 16 18 13 13 29 40 44 50 51 54 63 70 75 76 80 86 86 86 82 77 72 65 58 51 46 42 39 37 35 32 27 23 18 13 7 2 356 351 345 340 336 332 328 325 322 320 318 318 316 315 314 313 313 310 308
174 174 174 174 177 180 181 181 178 174 169 165 165 169 176 184 184 173 173 182 192 213 244 254 248 57 17 342 342 356 9 19 17 8 18 35 37 38 43 51 59 66 72 74 78 82 83 83 79 75 68 60 55 49 45 41 41 41 36 31 23 18 11 5 0 354 349 344 339 335 332 328 326 324 323 322 322 322 322 321 320 318 316 314 313
168 170 173 177 184 186 185 182 178 174 169 166 166 171 175 179 182 176 176 177 183 209 234 240 239 51 31 354 340 341 346 354 1 5 15 27 29 27 33 45 54 61 68 73 77 79 79 77 72 67 59 54 51 48 45 42 42 40 34 26 18 12 7 3 358 353 349 345 341 337 335 334 333 332 332 332 331 330 328 326 323 319 317 316 316
170 173 176 180 182 182 183 181 179 176 174 172 172 175 173 170 175 178 182 180 186 211 228 230 206 121 62 328 327 323 318 329 339 349 4 11 12 13 23 38 47 55 67 75 77 75 73 70 63 55 48 46 48 46 43 40 39 35 29 23 17 12 8 5 0 357 354 351 349 346 344 343 342 341 339 338 336 333 331 327 323 320 319 317 316
176 177 179 180 179 177 179 181 181 181 181 181 176 175 171 166 165 173 184 188 191 209 227 244 255 258 280 289 306 308 301 307 323 336 351 358 356 359 12 35 47 51 66 79 81 74 66 60 52 47 46 45 46 44 39 36 35 32 28 23 18 13 10 7 4 2 359 358 356 353 351 349 348 345 342 340 339 338 335 332 328 325 324 323 322
177 177 177 180 182 181 181 185 187 187 187 186 179 178 175 165 160 169 183 191 198 216 240 273 275 276 313 327 315 294 286 290 303 322 344 354 351 356 4 28 62 70 74 84 86 78 65 54 47 44 47 50 47 43 37 35 34 31 26 20 16 13 11 9 7 6 4 2 0 359 358 355 353 350 348 347 345 345 341 339 336 334 335 334 336
174 175 178 183 188 190 191 194 195 194 196 194 188 186 181 171 166 173 179 185 197 219 256 288 285 298 325 338 335 298 285 292 300 311 329 349 357 18 33 49 86 96 95 94 90 82 71 58 52 48 50 55 50 45 40 37 33 28 22 16 13 11 10 11 11 10 8 7 5 5 4 1 359 356 354 353 350 349 348 347 347 347 349 349 350
171 178 185 189 193 196 199 201 198 200 202 197 194 192 188 187 187 183 184 188 197 224 278 281 286 316 323 338 348 337 332 331 321 309 308 319 349 39 66 83 100 106 102 97 90 81 75 67 60 51 50 57 52 44 40 37 33 27 21 14 12 11 10 12 13 14 14 13 11 9 8 5 3 1 358 357 356 356 355 354 355 356 357 356 355
176 182 187 190 192 195 200 202 200 203 205 198 198 198 197 201 203 200 199 200 198 211 245 255 264 292 309 342 351 346 352 352 341 319 300 301 322 7 68 91 101 109 103 97 90 80 75 68 60 51 45 48 46 35 29 32 31 25 20 15 13 12 12 13 14 17 19 19 16 13 10 8 6 4 1 1 2 2 0 359 360 360 359 357 355
187 189 191 194 194 197 202 205 205 208 208 203 202 204 205 206 210 211 209 204 193 191 209 242 257 257 280 330 342 347 353 350 345 339 321 309 311 314 322 68 73 85 84 81 75 72 72 66 59 48 40 35 36 29 19 23 26 21 17 15 14 12 12 13 15 21 23 21 20 17 14 11 9 7 5 5 5 4 3 2 2 1 360 358 354
198 197 197 196 196 201 206 210 215 216 213 210 208 206 208 209 211 213 213 208 197 191 201 228 244 239 265 313 317 325 338 347 349 344 334 322 313 307 299 306 11 32 47 48 37 46 57 56 54 45 39 38 37 28 17 16 19 18 14 12 13 12 11 12 17 25 27 23 22 20 18 15 12 11 8 7 6 5 4 4 4 3 360 356 352
204 203 202 201 201 202 207 214 220 221 218 214 212 209 209 211 212 213 215 214 207 205 214 222 229 233 254 300 307 315 328 342 348 346 345 340 324 308 302 293 317 17 40 41 21 26 29 33 42 37 36 37 27 17 13 13 13 14 12 8 9 10 9 9 14 26 30 28 26 25 22 18 14 13 10 9 8 6 5 4 4 3 360 354 351
206 207 209 209 209 207 210 214 217 220 221 217 217 217 214 216 218 217 215 215 213 216 232 240 235 232 238 264 289 304 326 339 345 349 352 352 339 317 299 284 300 357 23 27 19 29 24 16 23 18 21 25 16 9 10 12 9 8 7 2 3 8 7 5 6 18 27 29 29 29 27 23 18 16 12 9 7 6 4 4 4 3 1 355 351
210 208 211 212 211 213 215 214 213 216 221 220 219 222 222 221 225 223 217 216 220 226 243 256 253 240 234 247 259 257 310 342 345 346 356 2 353 336 309 280 293 5 3 6 34 35 32 28 12 351 0 9 8 5 7 9 6 1 359 355 357 5 7 3 1 8 18 22 24 25 26 24 20 18 15 11 7 5 3 2 3 2 1 358 354
213 209 212 213 212 215 216 214 213 214 217 221 222 225 227 227 228 225 220 224 231 237 246 257 259 246 238 248 256 250 269 331 336 336 355 7 359 346 329 301 286 310 337 306 271 325 356 21 358 335 349 359 2 3 6 6 1 355 353 349 350 360 5 3 359 1 10 15 17 18 19 19 17 15 14 13 9 4 1 0 2 2 0 359 357
213 211 213 215 216 216 214 215 219 220 220 224 229 232 232 229 228 227 227 233 238 242 246 252 255 245 240 249 257 264 274 299 326 329 341 352 351 345 341 322 296 281 298 291 255 251 292 349 340 329 343 351 354 2 6 3 355 350 346 343 346 356 3 3 359 357 2 8 12 13 13 13 12 11 10 11 10 5 1 359 1 1 359 359 358
211 211 212 215 218 215 213 215 220 225 227 230 235 237 236 234 235 236 235 237 239 243 245 247 249 242 240 248 253 262 270 274 298 309 314 330 337 334 334 333 316 287 280 278 266 271 289 319 331 328 334 338 341 356 3 356 349 346 342 339 345 353 359 1 359 357 356 0 7 9 8 7 7 6 5 6 7 6 2 359 1 2 359 357 358
212 213 213 216 218 214 213 217 220 226 230 232 234 236 242 246 245 246 243 240 240 240 240 241 245 242 242 248 250 255 261 259 272 287 294 311 321 322 320 323 324 297 276 270 276 291 295 301 315 318 324 325 325 345 356 350 345 343 342 340 343 349 353 355 355 355 351 351 358 3 3 2 1 1 1 1 3 4 3 1 2 4 0 357 357
216 218 218 218 218 215 215 221 224 226 227 229 230 234 246 252 251 250 247 246 243 237 235 235 240 244 246 249 247 247 251 250 260 270 276 296 306 311 311 309 308 301 292 287 292 303 302 299 304 309 318 317 311 327 345 346 343 338 338 341 343 345 346 347 349 350 346 342 346 352 356 356 355 356 357 357 358 359 2 3 3 5 3 358 356
218 222 221 220 220 218 219 224 228 229 228 228 229 234 243 248 251 251 247 248 246 239 235 234 237 242 244 248 245 240 239 241 253 265 268 284 297 301 304 306 303 297 295 295 301 309 304 297 298 299 305 304 298 312 333 339 335 330 333 338 341 342 340 340 344 346 341 337 338 342 346 348 349 350 351 354 354 355 359 2 5 7 6 3 358
219 220 219 220 222 222 224 227 228 230 232 232 230 233 240 240 242 247 247 250 250 244 240 235 236 239 239 243 243 234 231 239 251 264 272 283 293 296 296 301 306 303 299 294 296 305 303 298 297 292 289 289 287 293 308 316 314 314 322 330 334 336 336 336 340 342 340 336 335 337 339 340 341 343 346 349 351 352 355 360 3 7 9 7 2
221 219 218 220 222 224 228 229 229 230 234 237 234 234 238 236 235 241 247 250 250 246 244 239 237 238 237 241 244 235 230 240 253 262 274 283 289 293 293 295 300 303 305 302 297 298 299 299 300 293 284 278 277 278 285 293 295 299 309 318 323 327 329 330 333 336 338 335 332 333 335 336 336 337 340 344 348 349 352 356 360 3 8 9 7
223 222 223 223 223 226 229 228 228 230 233 235 236 236 239 239 237 237 240 246 249 248 248 245 241 242 240 241 244 239 234 240 250 259 270 278 283 288 293 296 298 299 303 304 300 295 291 292 295 294 285 272 269 273 276 284 292 297 303 308 313 318 321 323 327 329 331 331 328 330 334 335 334 334 336 340 344 347 350 353 356 359 4 8 9
225 225 226 225 225 226 224 222 224 227 230 233 236 238 239 239 239 237 235 242 249 249 250 250 247 246 244 242 244 243 241 243 249 256 262 271 278 283 289 295 298 301 302 302 300 297 292 288 285 285 284 275 272 276 277 284 292 296 300 304 306 310 313 318 322 324 325 325 323 324 332 335 334 336 338 340 343 346 349 351 353 355 359 3 5
228 226 225 224 226 226 220 218 222 225 228 231 236 238 237 237 238 235 234 242 249 249 249 251 252 252 250 248 249 250 248 248 250 252 256 263 271 278 283 288 294 301 303 302 303 302 300 294 286 282 282 281 283 286 286 288 291 294 298 301 304 307 310 313 316 318 320 320 319 321 329 333 334 339 343 343 343 345 347 349 350 351 353 356 360
230 229 227 224 226 229 225 223 226 230 230 231 235 238 237 237 236 235 236 242 249 248 245 247 252 256 257 256 256 256 254 254 253 252 254 258 264 271 275 280 287 295 302 307 310 310 311 309 303 296 292 290 291 293 294 293 293 295 298 300 302 304 305 307 310 313 315 315 318 324 329 331 332 338 345 345 345 345 345 347 347 348 348 349 354
231 231 231 230 230 233 233 233 235 238 239 238 238 239 238 237 235 236 238 243 249 249 244 245 249 253 259 260 260 259 259 260 259 257 257 260 263 267 269 274 279 279 288 303 307 306 309 312 315 313 309 304 300 298 299 299 299 299 300 301 301 301 302 304 306 309 311 314 323 329 330 330 330 336 342 345 346 346 344 343 343 344 345 343 347
232 231 233 234 235 237 238 240 241 244 247 245 243 243 242 240 238 236 238 243 249 250 248 248 249 251 257 262 262 260 260 261 261 262 263 266 267 269 269 270 271 268 278 296 299 300 302 306 310 315 315 311 308 307 307 306 306 305 305 306 307 308 307 306 306 311 314 316 324 328 328 327 328 332 336 339 344 345 343 340 340 341 341 339 340
234 232 233 235 237 240 242 243 242 245 250 251 250 248 245 245 243 241 241 244 247 250 251 251 251 252 256 260 260 258 259 261 261 263 266 267 270 272 272 271 268 264 270 285 292 295 297 300 305 310 312 311 311 314 316 314 311 310 312 316 318 317 314 307 305 313 317 314 317 321 322 322 323 325 329 331 335 340 341 339 337 338 339 335 333
236 235 235 237 239 241 244 246 247 249 254 258 259 256 251 248 246 244 243 244 247 250 252 253 253 254 258 261 259 255 256 260 261 263 265 266 267 271 274 275 272 267 268 274 281 288 292 296 300 304 307 310 311 315 319 318 316 318 323 327 327 327 324 315 307 309 311 310 313 316 318 319 319 321 324 325 327 332 337 336 334 336 337 330 325
236 235 235 237 239 242 244 247 251 254 258 262 265 266 262 255 250 247 245 244 247 251 254 256 255 254 257 261 263 262 261 263 265 265 266 269 270 272 275 277 275 271 271 272 273 278 283 288 293 298 303 308 311 314 319 318 317 321 326 328 327 329 329 323 314 309 308 309 311 313 315 317 319 319 321 321 322 325 330 332 331 333 333 323 314
235 234 235 236 238 240 243 245 250 256 260 264 268 271 270 265 259 254 249 246 245 247 253 256 256 255 255 258 261 262 262 265 268 270 271 274 275 275 276 276 276 274 274 274 273 274 278 282 288 295 302 308 312 313 316 316 314 318 323 324 323 326 328 324 319 316 313 312 313 313 315 316 317 317 317 317 318 321 324 326 325 327 326 316 305
236 236 235 237 240 241 243 245 249 254 259 263 267 270 272 271 268 263 258 253 249 248 250 252 254 255 256 258 259 259 259 261 265 267 268 271 274 275 276 277 277 277 277 278 277 277 280 284 290 297 303 307 310 311 311 311 312 316 321 322 323 324 324 321 317 317 317 315 314 313 314 315 314 313 314 315 317 319 320 320 318 318 317 310 302
234 236 237 239 242 243 243 245 249 253 256 259 262 266 268 271 272 271 268 264 261 259 258 256 256 256 257 259 261 262 264 265 266 267 267 269 271 272 273 274 273 273 274 274 275 278 280 283 289 296 300 303 306 308 308 309 312 316 320 323 323 322 321 317 312 312 313 313 312 311 310 311 310 310 312 314 317 318 318 315 311 308 304 301 299
233 235 237 240 244 245 243 243 247 252 256 259 261 261 262 266 270 273 273 272 271 270 269 267 264 262 262 264 265 268 269 269 269 270 271 272 272 271 270 268 262 260 264 267 270 274 278 281 285 291 294 297 301 305 306 308 310 314 318 320 319 320 320 318 313 309 309 310 310 307 305 307 308 310 312 314 317 318 315 311 307 300 293 288 290
237 237 237 240 246 250 249 247 248 250 254 259 261 261 261 261 266 269 271 272 273 274 275 275 273 272 270 270 270 270 271 271 271 272 272 273 272 271 269 265 258 254 257 263 268 273 277 280 283 285 286 289 293 298 301 303 306 310 312 313 314 318 321 320 317 314 311 309 308 305 304 307 309 310 311 314 317 318 314 310 305 296 286 280 280
244 243 243 244 247 252 255 255 254 254 255 257 260 261 261 260 261 264 267 269 271 272 274 276 279 280 279 276 273 271 270 271 273 274 275 274 273 271 269 264 259 254 255 259 263 268 273 277 279 279 280 283 288 292 295 298 301 305 306 306 309 312 315 316 315 314 312 309 307 305 304 305 309 310 310 312 316 316 314 311 303 293 283 276 274
244 244 245 247 250 253 256 257 257 258 258 258 259 260 261 260 259 261 263 266 269 271 273 274 276 280 282 281 278 274 271 270 272 273 275 275 274 273 271 267 262 258 256 257 259 264 268 272 275 276 277 280 284 287 290 294 297 299 300 302 305 306 308 310 310 309 309 308 306 305 303 303 308 309 307 309 314 315 314 311 302 292 283 276 273
243 243 243 245 248 251 255 257 258 258 258 258 258 258 258 258 259 260 262 264 267 269 271 272 273 274 276 277 278 276 273 270 271 273 276 277 278 277 275 273 270 266 263 261 261 262 265 269 272 275 278 281 283 286 290 292 293 295 298 300 301 302 303 304 304 304 305 304 303 302 299 300 306 306 304 309 314 313 312 308 302 295 287 279 274
243 245 245 246 248 250 253 256 257 259 260 259 258 256 255 256 259 261 262 263 264 266 267 267 267 266 266 268 269 270 268 267 268 270 274 278 280 281 281 279 278 276 273 269 267 266 266 267 270 272 275 278 281 285 289 290 292 295 297 297 297 299 299 300 300 300 300 298 298 298 297 298 302 302 303 310 312 309 309 308 304 297 289 281 275
250 252 252 252 253 254 255 255 257 261 262 260 259 258 257 256 258 260 262 263 264 264 264 264 264 263 262 263 265 267 266 265 263 264 268 273 276 277 277 278 279 279 278 277 275 273 272 272 272 274 275 278 281 284 288 290 292 294 294 293 293 295 296 297 298 298 296 296 296 296 295 296 298 300 303 308 309 306 306 308 306 297 287 281 276
253 255 256 255 256 257 258 258 259 262 262 258 257 260 261 261 260 260 261 263 265 263 260 259 259 259 259 260 264 268 269 269 268 267 268 272 274 275 274 274 275 275 276 278 279 279 279 280 281 282 284 285 287 288 289 290 290 291 289 288 289 293 294 294 295 296 297 296 295 295 294 294 297 301 302 304 304 303 303 304 304 298 289 283 276
251 254 255 254 254 254 257 260 261 262 261 257 254 257 262 265 265 264 264 264 265 263 260 258 257 258 259 261 264 268 272 276 278 277 275 274 274 275 274 275 275 273 273 276 278 280 282 284 286 287 288 289 290 290 289 287 287 287 285 284 287 289 289 288 291 296 297 294 292 293 294 294 296 299 301 302 301 298 297 299 301 299 295 290 284
256 259 258 257 255 252 254 259 261 261 260 257 253 254 257 260 262 264 265 265 264 263 262 261 260 261 262 265 267 270 274 278 281 281 279 276 274 274 274 275 274 273 273 274 275 278 281 283 285 287 288 289 289 289 287 284 283 282 282 283 285 286 285 286 289 292 292 291 292 294 294 295 296 297 300 303 301 296 294 295 297 297 296 296 294